Flag for Portugal Weather past 2 weeks in Braga, Portugal

Now
56 °F

Cool.


Feels Like: 56 °F
Forecast: 52 / 83 °F
Wind: 1 mph from Southeast

Location: Porto / Pedras Rubras

Current Time: Jul 6, 2015 at 6:25:04 AM

Latest Report: Jul 6, 2015 at 5:00 AM


Visibility: N/A

Pressure: 30.07 "Hg

Humidity: 83%

Dew point: 51 °F

Location of BragaLocation

Historic Weather in Braga — Graph

°F

Braga temperature yesterday

Maximum temperature yesterday: 71 °F (at 2:00 PM)
Minimum temperature yesterday: 60 °F (at 7:00 AM)
Average temperature yesterday: 65 °F

Past Weeks' High & Low Weather Summary

 TemperatureHumidityPressure
High92 °F (Jun 21, 12:00 PM)94% (Jun 30, 5:00 AM)30.24 "Hg (Jun 30, 5:00 AM)
Low56 °F (Jul 2, 6:00 AM)20% (Jun 21, 11:00 AM)29.95 "Hg (Jul 1, 6:00 AM)
Average66 °F73%30.10 "Hg
* Reported Jun 21 3:00 AM — Jul 6 3:00 AM, Braga, Weather by CustomWeather, © 2015

Note: Actual official high and low records may vary slightly from our data, if they occured in-between our weather recording intervals... More about our weather records

Advertising

Braga weather history for previous 24 hours

 ConditionsComfort  
Time TempWeatherWind HumidityBarometerVisibility
3:00 AM
Mon, Jul 6
58 °FCool.2 mph79%30.09 "HgN/A
2:00 AM57 °FCool.No wind81%30.10 "HgN/A
1:00 AM58 °FCool.No wind78%30.11 "HgN/A
12:00 AM60 °FCool.1 mph76%30.13 "HgN/A
11:00 PM
Sun, Jul 5
61 °FCool.5 mph75%30.13 "HgN/A
10:00 PM62 °FCool.7 mph71%30.12 "HgN/A
9:00 PM64 °FMild.7 mph67%30.12 "HgN/A
8:00 PM65 °FMild.8 mph68%30.13 "HgN/A
7:00 PM66 °FMild.10 mph65%30.14 "HgN/A
6:00 PM68 °FMild.12 mph62%30.14 "HgN/A
5:00 PM69 °FMild.12 mph59%30.14 "HgN/A
4:00 PM70 °FMild.9 mph53%30.15 "HgN/A
3:00 PM71 °FMild.10 mph50%30.16 "HgN/A
2:00 PM71 °FMild.10 mph51%30.18 "HgN/A
1:00 PM71 °FMild.8 mph47%30.17 "HgN/A
12:00 PM70 °FMild.8 mph53%30.18 "HgN/A
11:00 AM68 °FMild.5 mph60%30.17 "HgN/A
10:00 AM67 °FMild.5 mph59%30.17 "HgN/A
9:00 AM65 °FMild.3 mph64%30.17 "HgN/A
8:00 AM62 °FCool.3 mph71%30.16 "HgN/A
7:00 AM60 °FCool.3 mph74%30.16 "HgN/A
6:00 AM60 °FCool.6 mph79%30.15 "HgN/A
Weather by CustomWeather, © 2015

See weather overviewHow to use our weather pages